Location: Curupao
(10.4996°N, 66.6442°W)
Time: 00:10:27
(UTC+00:00)

JB-3 - Pass Details

Date: 23 May 2024
Orbit: 510 x 563 km, 97.2° (Epoch: 15 June)

Event Time Altitude Azimuth Distance (km) Brightness Sun altitude
Rises 09:38:37 0° 166° (SSE) 2,611 7.7 -6.6°
Reaches altitude 10° 09:40:41 10° 165° (SSE) 1,729 6.8 -6.1°
Maximum altitude 09:44:24 78° 79° (E) 530 4.4 -5.2°
Drops below altitude 10° 09:48:10 10° 353° (N) 1,749 7.1 -4.4°
Sets 09:50:16 0° 352° (N) 2,644 8.0 -3.9°
